Wetbulb
51.03 50.79 48.72 47.85 46.40 45.84 44.45 44.10 39.62 35.05 35.70 37.91 38.30 42.80 43.10 42.06 43.41 44.55 44.27 42.36 41.82 41.95 41.70 41.11 41.09 41.01 40.75 40.83 40.68 40.67 40.41 40.64 41.15 41.42 41.74 41.66 42.22 42.74
50.01 49.32 47.35 45.74 45.19 44.07 43.58 43.47 42.68 41.61 37.35 40.21 41.05 40.52 41.27 40.45 42.35 42.77 42.41 41.64 40.83 40.31 39.66 39.58 39.47 39.59 39.39 39.26 39.17 38.87 38.66 39.01 39.83 40.31 40.52 40.48 40.53 40.83
49.94 47.99 46.98 45.93 44.70 44.18 43.78 41.63 40.58 41.96 38.10 37.45 40.54 39.63 39.02 39.33 40.35 41.41 41.73 40.60 40.34 38.88 38.47 38.08 38.02 37.80 37.58 37.53 37.37 37.10 36.72 36.87 37.72 38.35 38.83 39.43 38.93 39.14
48.13 47.28 47.09 44.88 46.90 44.63 42.36 40.21 39.90 38.90 36.57 32.62 35.27 36.05 38.11 40.03 39.66 39.60 39.21 39.04 39.23 38.74 37.99 37.20 36.73 36.18 35.84 35.71 35.35 35.00 34.78 34.51 35.10 36.11 36.51 37.51 37.03 37.07
48.28 47.55 46.55 44.40 43.12 42.86 41.44 39.96 40.85 39.92 38.75 36.57 34.07 36.46 37.55 40.11 37.52 38.37 37.72 37.38 38.11 38.42 36.96 35.88 35.22 35.01 34.56 34.13 33.83 33.52 33.25 32.84 32.95 33.42 33.98 34.62 34.57 34.88
47.95 46.93 45.16 44.38 43.14 41.87 41.36 40.50 40.39 39.29 37.69 36.67 35.30 34.81 35.44 36.47 36.09 33.78 32.95 35.28 34.63 36.57 35.85 35.31 34.53 34.07 33.63 33.31 32.84 32.94 32.75 32.37 31.79 31.79 32.21 32.37 32.23 32.18
45.79 45.38 43.30 44.09 43.45 42.69 42.44 41.50 40.09 38.27 36.33 35.19 33.99 33.96 32.67 31.02 31.46 33.63 32.66 33.64 33.99 35.45 34.57 34.42 34.21 33.85 33.00 32.78 32.66 32.60 32.40 32.40 31.96 31.62 31.55 31.10 31.02 30.77
43.20 43.07 43.41 43.20 42.44 41.13 41.46 40.32 40.81 38.57 37.01 35.33 34.29 31.97 31.59 32.20 33.41 33.27 33.53 31.47 28.93 35.65 35.07 32.66 34.26 33.22 33.17 33.75 32.05 31.72 31.70 31.77 31.77 31.52 30.47 30.19 29.90 29.59
39.32 39.50 40.22 41.32 41.47 41.10 38.78 38.56 38.40 38.46 37.26 38.37 33.92 33.64 31.88 32.69 33.14 32.81 33.17 32.61 33.86 33.71 33.55 31.63 34.11 33.13 34.39 32.57 31.63 31.15 30.91 31.11 31.22 30.83 30.70 29.58 28.93 28.84
40.58 40.97 40.29 39.38 39.40 38.74 38.04 36.90 36.76 36.60 35.15 36.60 36.04 35.15 34.67 34.01 33.91 34.39 33.38 32.83 31.64 32.01 34.42 30.50 32.31 32.07 33.80 33.38 31.56 31.33 30.58 30.50 30.53 30.32 29.68 29.69 29.00 28.24
38.02 39.52 39.43 39.37 37.81 39.61 38.81 37.12 36.35 34.57 36.74 37.87 37.57 36.69 35.88 35.13 34.39 34.52 30.49 28.10 26.78 30.28 33.00 32.55 30.21 31.43 31.33 32.23 33.84 31.75 30.86 30.35 30.19 30.21 29.23 28.72 29.27 28.52
35.60 37.01 36.68 37.04 36.56 36.97 37.86 36.37 34.06 32.97 33.52 33.88 34.24 35.25 34.98 34.33 33.77 33.77 31.26 28.57 28.82 28.38 32.05 30.40 29.73 30.51 27.00 31.27 32.19 33.20 32.15 30.51 30.15 30.00 29.06 28.09 28.69 30.07
34.60 34.24 35.33 35.82 36.31 36.97 36.95 36.79 35.34 33.47 33.44 33.52 33.32 33.09 33.05 33.02 32.78 33.35 32.29 32.19 30.30 32.55 32.47 32.16 30.00 29.80 30.98 26.71 29.11 31.15 32.00 31.36 31.59 30.61 28.86 27.55 27.75 28.21
33.70 34.42 34.59 35.98 36.37 35.94 35.82 34.98 33.44 33.77 33.88 33.11 32.66 31.89 31.62 31.80 32.43 32.53 32.25 33.34 34.97 33.52 31.18 32.46 30.41 30.10 28.90 25.49 24.87 28.43 29.68 30.74 31.01 29.69 28.37 27.10 26.49 26.58
34.60 34.51 34.77 35.58 35.48 34.06 34.14 33.36 32.79 33.15 32.61 31.71 31.53 31.59 32.43 32.94 32.61 32.97 32.79 32.43 31.12 31.16 31.32 32.31 31.80 31.40 31.67 29.19 27.03 26.21 26.33 27.92 28.64 27.55 26.02 25.41 25.83 25.96
32.87 33.67 33.77 33.27 33.53 33.41 32.87 32.67 33.70 33.34 32.94 32.76 32.61 32.79 32.41 31.67 31.67 31.94 30.12 31.27 30.47 28.60 30.81 31.94 31.66 31.57 30.96 29.71 27.91 26.42 27.69 24.33 26.50 26.29 25.17 24.83 25.09 25.17
32.73 32.61 32.23 32.25 31.81 31.80 32.23 32.43 32.61 32.60 32.22 32.61 32.22 30.38 29.57 30.33 31.46 31.70 31.12 30.24 28.58 26.35 25.05 26.42 28.41 30.58 30.31 28.21 26.57 27.03 26.37 25.50 25.39 25.38 23.55 21.96 22.40 23.31
32.34 31.69 31.42 31.60 31.06 31.02 30.48 29.96 30.79 31.11 32.04 30.89 29.97 29.50 29.56 29.90 29.67 29.65 29.84 29.65 29.26 27.14 25.57 24.76 24.53 24.25 23.48 24.34 26.07 25.77 25.46 24.37 24.08 23.27 23.46 21.82 21.03 22.21
31.60 31.57 31.67 31.67 31.69 30.93 30.87 30.04 29.76 30.70 31.76 31.45 31.13 30.64 29.84 29.29 28.20 27.16 28.16 28.69 27.88 26.45 25.54 24.70 24.41 25.04 22.34 22.12 24.44 26.06 23.43 23.41 22.67 22.17 22.43 21.84 21.76 21.80
31.21 31.09 31.21 31.41 30.89 30.82 31.23 30.79 30.90 30.62 30.47 30.59 30.47 30.55 30.06 28.59 27.09 26.69 26.72 27.68 27.10 25.42 24.27 24.68 25.33 25.73 25.35 25.23 21.32 22.91 26.14 24.12 22.71 21.38 20.71 22.32 22.53 19.96
30.23 30.37 31.00 30.76 31.00 32.36 32.02 31.81 31.18 30.19 30.26 30.07 30.04 29.87 29.69 28.52 27.46 27.43 27.36 27.18 26.43 24.25 23.01 23.03 25.72 27.03 25.31 24.07 21.68 21.34 22.97 24.82 25.15 23.48 21.50 19.31 18.38 19.06
31.92 31.06 30.81 31.53 31.65 31.50 31.30 30.87 29.66 29.34 29.16 29.38 29.86 29.79 29.45 28.60 27.45 26.69 26.88 25.69 24.74 24.44 23.89 24.92 23.51 22.89 22.18 21.96 21.78 21.04 21.44 22.86 23.67 24.07 23.30 22.95 20.21 16.86
32.08 31.86 31.39 30.53 31.14 31.47 31.65 30.62 29.88 29.67 29.05 29.11 28.92 28.64 28.90 27.16 27.52 26.54 26.23 25.52 24.87 24.38 24.19 21.95 21.35 22.13 21.41 21.21 20.80 20.64 20.88 20.60 21.15 20.30 21.27 21.76 20.84 20.02
MSLP
1011.55 1012.41 1013.10 1014.02 1015.02 1015.78 1016.67 1017.57 1019.03 1022.48 1024.07 1025.05 1025.60 1026.34 1026.90 1027.86 1028.22 1028.89 1029.40 1029.82 1030.32 1031.19 1031.15 1031.72 1032.33 1032.68 1033.14 1033.24 1033.63 1033.48 1033.62 1033.70 1033.63 1033.65 1033.62 1033.72 1033.31 1032.88
1011.06 1011.83 1012.65 1013.45 1014.33 1015.30 1016.08 1016.72 1017.57 1018.84 1021.89 1023.38 1024.34 1025.44 1026.66 1027.43 1028.23 1028.81 1029.44 1030.05 1030.05 1030.91 1031.42 1031.79 1032.27 1032.63 1033.03 1033.33 1033.75 1033.93 1033.89 1033.97 1033.89 1033.86 1033.77 1033.96 1033.63 1033.63
1009.91 1010.95 1011.91 1012.20 1013.13 1014.49 1015.55 1016.55 1017.27 1018.09 1020.28 1022.98 1024.00 1024.83 1026.07 1026.95 1027.74 1028.47 1029.12 1029.88 1030.56 1031.08 1031.88 1032.11 1032.39 1032.69 1033.26 1033.44 1033.87 1034.26 1034.31 1034.31 1034.27 1034.28 1034.16 1034.21 1034.08 1034.14
1009.44 1009.47 1010.98 1012.08 1013.10 1014.11 1014.47 1015.94 1016.92 1018.06 1019.20 1021.56 1023.59 1024.15 1024.81 1025.80 1026.71 1027.68 1028.65 1029.65 1030.14 1030.94 1031.50 1032.05 1032.34 1032.78 1033.03 1033.52 1033.93 1034.37 1034.49 1034.62 1034.59 1034.66 1034.67 1034.58 1034.46 1034.60
1007.39 1008.11 1010.03 1010.86 1012.57 1013.20 1014.10 1015.28 1016.48 1017.36 1018.58 1020.21 1022.29 1023.53 1024.46 1025.20 1026.75 1027.65 1028.57 1029.38 1029.72 1030.53 1031.56 1032.13 1032.44 1033.01 1033.33 1033.60 1033.88 1034.22 1034.43 1034.82 1035.03 1035.03 1035.03 1034.96 1034.95 1034.97
1006.75 1008.17 1009.21 1010.15 1011.49 1012.88 1013.52 1014.66 1016.36 1017.25 1018.58 1019.71 1021.35 1022.69 1023.95 1025.18 1026.34 1027.12 1028.21 1028.83 1029.72 1030.41 1031.37 1031.65 1032.21 1032.59 1033.08 1033.81 1034.06 1034.09 1034.31 1034.66 1034.98 1035.10 1035.22 1035.26 1035.25 1035.54
1006.65 1007.24 1008.00 1009.34 1010.52 1011.45 1012.68 1014.23 1015.59 1016.77 1018.06 1019.36 1020.72 1022.09 1023.51 1024.72 1025.06 1026.37 1027.43 1028.45 1029.39 1029.74 1030.35 1031.16 1031.92 1032.54 1033.19 1033.17 1033.41 1033.86 1033.99 1034.24 1034.77 1035.10 1035.38 1035.55 1035.53 1035.83
1005.79 1006.70 1007.34 1008.78 1009.80 1011.36 1012.03 1013.40 1013.94 1015.47 1016.92 1018.42 1019.58 1020.63 1022.10 1022.97 1024.48 1025.19 1026.12 1027.27 1028.53 1028.88 1029.56 1030.43 1030.98 1031.51 1032.07 1032.56 1033.32 1033.70 1034.16 1034.31 1034.43 1034.70 1035.05 1035.27 1035.60 1035.92
1005.39 1005.93 1006.82 1008.27 1009.70 1010.79 1012.19 1013.16 1013.82 1014.70 1015.01 1016.33 1018.16 1019.66 1021.18 1022.08 1023.27 1024.71 1025.07 1025.56 1026.01 1027.48 1028.67 1029.71 1030.70 1031.09 1031.67 1032.14 1032.75 1033.24 1033.89 1034.20 1034.37 1034.61 1034.92 1035.26 1035.55 1035.73
1005.11 1005.74 1006.42 1008.22 1009.34 1010.63 1012.12 1013.00 1014.12 1015.11 1015.58 1015.99 1016.50 1018.15 1019.46 1020.91 1021.92 1022.64 1023.57 1025.40 1026.72 1027.86 1028.34 1028.97 1030.15 1030.56 1031.58 1032.05 1032.68 1032.81 1033.36 1033.89 1034.14 1034.44 1034.82 1035.05 1035.40 1035.76
1005.97 1006.08 1007.16 1008.43 1009.29 1010.29 1011.49 1012.72 1013.99 1014.74 1015.57 1016.03 1016.92 1017.76 1018.71 1019.90 1021.09 1022.73 1024.20 1025.10 1026.73 1027.30 1028.09 1028.40 1029.67 1030.22 1031.07 1031.56 1032.08 1032.42 1032.94 1033.63 1033.79 1034.06 1034.67 1034.88 1035.01 1035.32
1006.73 1006.73 1007.83 1008.68 1009.56 1010.21 1011.01 1012.15 1013.62 1014.73 1015.62 1016.49 1017.40 1018.08 1018.86 1019.95 1020.84 1021.37 1022.50 1023.72 1024.76 1026.42 1026.81 1027.65 1028.62 1029.47 1030.57 1030.79 1031.47 1031.98 1032.41 1032.79 1033.30 1033.60 1034.08 1034.60 1034.77 1034.97
1006.89 1007.44 1008.19 1009.10 1009.66 1010.49 1011.25 1012.07 1013.01 1014.24 1015.42 1016.13 1017.12 1017.96 1018.86 1019.70 1020.36 1021.52 1022.40 1022.47 1023.28 1023.63 1025.01 1026.40 1027.51 1028.17 1028.08 1029.35 1030.37 1031.17 1031.49 1032.14 1032.66 1032.94 1033.59 1034.16 1034.48 1034.72
1007.68 1008.20 1008.59 1009.35 1010.24 1011.16 1012.00 1013.11 1013.27 1014.13 1015.05 1016.06 1016.77 1017.51 1018.51 1019.36 1020.12 1021.01 1021.80 1022.54 1023.03 1023.26 1024.52 1024.92 1025.94 1026.59 1027.67 1029.00 1029.47 1030.17 1031.03 1031.57 1032.14 1032.69 1033.15 1033.63 1034.24 1034.30
1007.82 1008.24 1008.98 1010.00 1010.69 1011.61 1012.22 1013.15 1013.80 1014.31 1015.14 1015.88 1016.67 1017.14 1017.23 1018.24 1019.44 1020.33 1021.62 1022.48 1023.10 1023.60 1024.21 1024.60 1024.97 1025.75 1026.65 1027.60 1028.34 1029.34 1030.44 1030.91 1031.54 1032.01 1032.94 1033.39 1033.47 1033.99
1008.15 1009.15 1009.65 1010.30 1010.79 1011.52 1012.55 1013.44 1013.80 1014.20 1014.89 1015.75 1016.50 1017.16 1017.53 1018.18 1019.18 1019.91 1020.69 1021.77 1022.35 1023.53 1023.92 1024.47 1024.71 1024.94 1025.92 1026.67 1027.33 1028.53 1029.20 1029.89 1030.62 1031.08 1031.92 1032.51 1032.97 1033.42
1009.26 1009.80 1010.21 1010.71 1011.37 1012.08 1012.74 1013.45 1013.77 1014.49 1014.92 1015.23 1016.00 1016.63 1017.64 1018.41 1018.66 1019.44 1019.94 1020.68 1021.53 1022.65 1023.85 1024.66 1025.02 1025.08 1025.64 1026.41 1026.92 1027.49 1028.21 1028.99 1029.71 1030.57 1031.44 1031.95 1032.43 1032.60
1009.30 1010.00 1010.75 1011.06 1011.67 1012.21 1012.71 1013.41 1014.31 1014.24 1014.34 1014.87 1015.58 1016.25 1016.95 1017.58 1017.99 1018.77 1019.59 1019.73 1020.34 1021.52 1022.74 1023.59 1024.43 1025.36 1026.05 1026.67 1026.53 1026.83 1027.64 1028.40 1029.33 1030.33 1030.59 1031.14 1031.60 1032.08
1009.41 1010.10 1010.79 1011.16 1011.60 1011.99 1012.51 1013.19 1013.88 1014.07 1014.34 1014.47 1014.88 1015.56 1016.21 1017.06 1017.88 1018.40 1018.91 1019.17 1019.83 1021.02 1021.97 1023.03 1023.65 1024.00 1024.57 1024.99 1025.97 1026.53 1026.81 1027.95 1028.91 1029.58 1029.99 1030.47 1030.73 1031.14
1009.41 1010.04 1010.52 1010.92 1011.37 1012.01 1012.50 1012.87 1013.46 1013.52 1013.72 1013.82 1014.46 1015.27 1015.87 1016.52 1017.21 1017.88 1018.54 1018.50 1019.26 1020.37 1021.35 1022.24 1022.67 1022.68 1022.80 1023.40 1025.06 1025.95 1026.53 1027.21 1027.80 1028.45 1029.31 1030.01 1030.49 1031.28
1009.39 1010.07 1010.22 1010.79 1011.20 1011.70 1012.10 1012.79 1013.32 1013.26 1012.90 1013.10 1014.06 1015.06 1015.68 1016.11 1016.57 1017.29 1017.79 1018.05 1018.72 1019.65 1020.42 1021.03 1021.42 1022.40 1023.26 1024.03 1024.84 1025.60 1026.29 1026.88 1027.28 1027.82 1028.66 1029.42 1029.93 1030.29
1009.14 1009.35 1010.04 1010.59 1010.82 1011.56 1012.68 1012.99 1012.93 1012.59 1012.39 1012.99 1013.88 1014.74 1015.18 1015.68 1016.18 1016.69 1017.09 1017.58 1018.21 1018.98 1019.79 1020.63 1022.00 1022.83 1023.11 1023.43 1023.75 1024.84 1025.63 1026.65 1027.50 1027.81 1028.26 1028.34 1028.99 1029.31
1009.30 1009.70 1010.39 1010.95 1011.36 1011.67 1012.06 1012.41 1011.90 1011.65 1012.21 1012.97 1013.74 1014.39 1015.09 1015.39 1015.75 1016.24 1016.73 1017.29 1017.94 1018.64 1019.45 1020.56 1021.65 1022.47 1022.75 1023.17 1023.72 1024.42 1025.08 1026.08 1026.78 1027.59 1028.14 1028.53 1028.91 1029.39
Wind_Speed
19 18 15 12 10 9 9 15 13 9 11 10 6 13 10 9 12 12 12 18 16 13 14 14 12 11 9 9 8 9 9 8 8 9 9 9 10 11
14 20 16 12 11 9 10 10 7 10 9 6 8 12 12 9 13 11 11 15 17 15 15 15 14 14 13 11 10 9 9 8 8 9 9 9 10 10
19 18 17 15 13 10 9 8 6 5 10 5 7 13 14 12 12 12 12 9 9 16 15 14 14 13 12 12 11 10 10 8 7 7 8 10 10 9
15 15 16 12 16 14 12 11 8 6 8 14 9 10 13 17 15 15 11 10 11 16 18 17 15 14 13 12 12 11 10 9 8 7 7 9 10 9
22 20 23 21 17 13 12 11 10 8 10 10 7 7 9 13 13 12 12 12 9 18 17 16 15 14 14 14 14 13 12 10 9 8 8 9 10 9
20 20 17 19 18 16 13 14 12 9 9 10 9 12 10 11 10 11 10 10 11 12 14 13 16 17 17 15 14 14 14 13 11 11 9 9 11 9
16 17 18 19 22 21 14 14 15 11 10 11 10 11 10 12 15 10 11 10 10 10 11 11 11 11 10 15 14 16 15 15 13 12 11 9 10 9
18 17 15 22 21 25 23 24 22 18 15 11 9 14 15 14 12 12 12 13 10 11 11 12 12 11 10 10 14 14 14 13 14 14 13 12 10 10
15 15 14 12 18 15 16 21 19 23 24 17 17 14 15 16 14 15 16 14 9 11 13 12 10 10 9 9 17 17 16 15 14 13 13 12 11 11
12 14 14 13 14 15 13 13 12 11 10 9 16 17 15 17 18 15 15 10 7 10 11 11 9 7 8 8 18 18 17 16 15 14 12 12 13 11
8 10 12 12 17 21 15 14 11 7 8 10 12 18 21 27 19 12 11 12 6 10 12 6 8 8 8 8 9 19 18 17 16 15 13 11 11 12
6 9 13 12 20 20 14 14 13 9 11 10 9 12 16 20 26 17 15 14 8 8 12 10 11 10 7 8 9 8 10 18 17 16 14 12 13 6
7 6 6 18 19 18 16 12 13 13 11 11 9 9 11 13 12 9 12 12 12 5 11 11 10 11 4 5 9 10 9 10 9 11 16 12 12 10
6 5 7 18 18 14 11 10 19 13 9 8 9 8 10 9 10 8 11 7 7 3 14 15 7 11 8 6 6 11 10 8 9 9 8 9 10 10
6 9 14 15 17 11 13 18 14 8 8 8 8 8 9 9 10 9 9 7 7 5 12 13 7 12 9 6 7 10 12 9 10 10 9 8 7 6
10 7 7 7 8 7 8 10 6 7 9 8 8 7 6 8 9 9 9 9 9 6 10 8 7 12 8 7 7 10 11 10 11 11 9 8 7 6
8 5 6 5 5 5 5 5 5 6 6 6 6 8 8 9 10 10 9 10 10 10 9 7 8 8 7 10 7 9 10 8 9 10 10 8 7 7
4 4 5 6 6 6 6 5 5 7 6 7 8 8 10 11 11 10 11 11 11 11 11 10 10 9 4 3 4 9 9 9 9 11 9 8 7 7
4 5 5 6 6 7 7 7 8 7 7 8 9 9 10 10 12 10 11 11 10 11 11 11 12 12 10 9 6 10 9 9 10 10 9 8 6 7
4 5 5 6 6 7 7 7 7 7 8 8 8 8 9 10 10 11 11 12 11 9 10 11 12 12 10 9 6 6 15 11 10 11 9 7 3 6
4 4 4 4 5 5 6 6 7 8 8 7 7 8 9 10 10 11 11 14 12 10 11 12 11 8 6 8 6 5 9 14 13 11 11 8 7 6
3 2 2 2 4 5 6 7 7 7 6 7 7 8 9 9 10 11 10 11 11 9 9 7 10 10 8 8 7 10 9 9 11 12 15 11 6 5
3 3 4 5 6 7 7 8 7 5 7 7 7 9 9 10 9 9 9 10 9 9 10 10 9 8 8 9 8 9 12 12 10 9 8 11 7 8
Wind_Direction
196 193 193 186 180 164 157 164 146 158 190 185 168 191 178 166 161 166 165 148 141 144 143 148 152 152 161 149 143 136 128 131 123 117 108 96 84 79
197 196 189 181 177 164 162 163 166 143 157 169 176 170 169 161 160 167 169 163 150 153 157 159 165 164 161 155 152 143 135 139 133 128 119 107 93 84
198 194 196 180 175 172 164 161 147 135 135 132 147 156 156 158 155 172 173 165 164 164 166 162 162 162 161 157 153 146 139 138 136 133 126 116 104 94
194 184 190 183 184 175 159 161 148 146 134 147 145 159 168 173 165 169 171 170 173 174 171 167 162 162 158 157 154 155 145 145 143 138 127 119 112 102
182 192 192 178 180 174 161 154 149 135 135 142 135 166 164 169 165 167 171 174 177 166 166 163 161 168 166 167 167 164 156 152 158 142 131 129 118 110
186 185 184 185 173 170 165 161 158 143 142 144 145 157 160 165 169 160 165 169 168 171 177 174 172 175 176 179 176 172 168 164 163 158 146 135 126 120
175 173 171 176 171 171 167 167 162 151 151 148 150 157 162 166 178 169 164 161 170 177 173 174 176 181 184 182 180 181 178 171 167 164 159 144 137 133
173 170 163 167 171 181 177 174 169 161 158 155 160 168 175 179 173 170 163 163 170 191 178 182 187 187 181 185 185 181 184 182 173 164 160 158 157 145
167 158 157 174 172 170 167 170 170 172 166 166 162 178 173 177 167 174 176 177 174 161 176 183 191 191 188 179 178 184 189 188 182 175 171 164 160 158
162 163 151 155 160 157 159 160 170 177 171 170 171 171 177 170 178 184 174 146 107 152 178 193 185 182 179 186 190 186 187 192 188 181 181 181 177 172
127 129 140 153 154 155 158 162 159 150 153 156 162 170 167 169 164 145 157 152 154 175 185 184 173 178 183 187 191 193 191 193 192 187 181 188 183 182
90 113 129 142 152 152 155 155 160 159 141 129 131 143 155 165 165 176 164 175 161 168 189 184 166 166 181 197 188 200 190 194 193 190 182 189 183 196
129 115 122 145 150 150 151 162 165 149 151 144 144 145 157 166 171 177 183 182 178 175 167 173 182 178 179 145 188 191 190 187 190 190 182 195 192 205
131 130 133 151 155 148 146 142 141 142 147 148 151 153 161 170 173 167 172 183 190 104 163 178 166 175 166 156 175 181 189 182 190 186 176 187 200 202
127 127 139 150 152 146 143 143 143 143 151 156 162 169 167 165 159 154 156 138 118 134 177 183 175 172 174 170 157 176 174 185 190 185 183 189 190 198
109 120 135 125 122 122 131 147 152 158 164 171 171 161 136 147 163 163 162 168 167 152 172 177 172 167 173 176 162 164 182 186 187 188 187 186 190 202
109 102 109 114 119 131 146 159 151 159 169 160 159 157 165 175 175 172 168 170 178 167 170 174 174 171 186 168 169 174 177 180 179 178 182 184 194 200
92 123 138 146 151 154 158 156 180 176 169 157 163 173 180 183 177 178 180 182 181 173 175 170 163 156 147 188 261 173 179 178 174 178 186 190 197 195
126 145 152 157 156 163 174 180 191 192 174 179 181 185 185 186 179 182 185 184 178 175 171 172 177 183 179 194 152 204 167 174 172 178 182 192 195 188
122 152 160 158 166 180 195 199 196 180 185 185 188 191 188 187 185 186 189 182 177 168 167 174 188 192 194 189 162 174 204 176 180 175 179 179 164 90
133 152 145 168 180 199 200 205 205 201 192 186 195 198 192 189 192 192 189 182 169 170 178 185 194 177 125 120 139 158 176 186 187 178 171 178 184 192
147 143 150 197 208 206 209 212 209 203 189 192 199 205 199 197 197 189 184 176 179 175 179 159 152 164 173 193 184 158 161 170 186 188 178 170 168 207
198 203 187 206 212 207 206 208 210 201 208 206 208 207 202 197 192 187 182 182 176 164 159 155 162 174 186 201 171 168 162 170 173 177 183 176 149 124